FW7501 Weather Reports


time (UTC)temp
F
wind
direction
speed
knots
gust
knots
rain 1hr
in
rain 24hr
in
rain mn
in
humidity
%
barometer
mb
20260905042506 59 314 17.4 28.7 0.00 0.07 0.07 58 1005.4
20260905042014 59 306 16.5 27.8 0.00 0.07 0.07 59 1005.3
20260905041519 59 324 15.6 23.5 0.00 0.07 0.07 61 1005.4
20260905041018 59 322 13.0 24.3 0.00 0.07 0.07 61 1005.2
20260905040505 60 316 13.9 26.9 0.00 0.07 0.07 62 1005.2
20260905040011 60 297 17.4 26.9 0.00 0.07 0.07 61 1005.1
20260905035506 60 282 13.0 20.0 0.00 0.07 0.07 63 1005.2
20260905035010 60 298 13.0 20.0 0.00 0.07 0.07 63 1005.3
20260905034507 60 310 9.6 21.7 0.00 0.07 0.07 64 1005.3
20260905034011 59 308 13.0 24.3 0.00 0.07 0.07 63 1005.3
20260905033507 59 310 14.8 24.3 0.00 0.07 0.07 62 1005.2
20260905033034 59 295 16.5 27.8 0.00 0.07 0.07 63 1005.4
20260905032514 60 290 16.5 27.8 0.00 0.07 0.07 58 1005.5
20260905032010 60 313 14.8 27.8 0.00 0.07 0.07 60 1005.5
20260905031531 60 317 20.9 27.8 0.00 0.07 0.07 58 1005.4
20260905031014 60 312 18.2 28.7 0.00 0.07 0.07 59 1005.5
20260905030514 60 316 20.0 26.1 0.00 0.07 0.07 59 1005.3
20260905030032 60 312 16.5 24.3 0.00 0.07 0.07 60 1005.4
20260905025510 61 339 12.2 25.2 0.00 0.07 0.07 62 1005.3
20260905025018 60 310 15.6 25.2 0.00 0.07 0.07 60 1005.4
20260905024514 60 318 15.6 24.3 0.00 0.07 0.07 60 1005.3
20260905024006 60 299 13.0 22.6 0.00 0.07 0.07 62 1005.3
20260905023510 59 334 14.8 22.6 0.00 0.07 0.07 64 1005.3
20260905023018 57 297 12.2 23.5 0.00 0.07 0.07 72 1005.5
20260905022511 56 312 12.2 26.9 0.00 0.07 0.07 71 1005.5
20260905022015 56 301 10.4 26.9 0.00 0.07 0.07 68 1005.7
20260905021516 58 313 11.3 18.2 0.00 0.07 0.07 68 1005.7
20260905021014 58 329 10.4 20.9 0.00 0.07 0.07 69 1005.7
20260905020513 58 287 11.3 25.2 0.00 0.07 0.07 69 1005.7
20260905020012 59 304 14.8 25.2 0.00 0.07 0.07 68 1005.7
20260905015520 59 335 12.2 23.5 0.00 0.07 0.07 69 1005.7
20260905015012 60 304 14.8 24.3 0.00 0.07 0.07 68 1005.8
20260905014535 60 323 16.5 25.2 0.00 0.07 0.07 68 1005.7
20260905014015 60 320 15.6 26.1 0.00 0.07 0.07 70 1005.7
20260905013508 59 314 16.5 26.1 0.00 0.07 0.07 68 1005.8
20260905013016 59 311 14.8 24.3 0.00 0.07 0.07 69 1005.9
20260905012509 59 302 13.0 23.5 0.00 0.07 0.07 70 1006.0
20260905012020 59 316 13.9 23.5 0.00 0.07 0.07 70 1006.0
20260905011522 58 297 15.6 23.5 0.00 0.07 0.07 70 1006.2
20260905011013 58 311 13.0 22.6 0.00 0.07 0.07 72 1006.4
20260905010513 58 343 13.9 24.3 0.00 0.07 0.07 72 1006.0
20260905010040 57 308 13.0 24.3 0.00 0.07 0.07 75 1006.0
20260905005509 57 316 12.2 26.9 0.00 0.07 0.07 79 1005.9
20260905005019 56 323 13.9 26.9 0.00 0.07 0.07 79 1005.8
20260905004526 56 320 14.8 24.3 0.00 0.07 0.07 80 1005.8
20260905004015 56 343 15.6 25.2 0.00 0.07 0.07 82 1005.7
20260905003515 56 332 13.0 26.9 0.00 0.07 0.07 82 1005.7
20260905003024 55 321 14.8 26.9 0.00 0.07 0.07 82 1005.6
20260905002519 55 340 16.5 26.9 0.00 0.07 0.07 83 1005.5
20260905002016 55 330 14.8 26.9 0.00 0.06 0.06 83 1005.7
20260905001514 55 354 15.6 27.8 0.00 0.06 0.06 83 1005.7
20260905001012 55 357 17.4 27.8 0.00 0.06 0.06 83 1005.6
20260905000517 55 343 15.6 26.9 0.00 0.06 0.06 83 1005.6
20260905000032 55 335 14.8 24.3 0.00 0.06 0.06 83 1005.9
20260904235513 55 349 17.4 29.5 0.00 0.06 0.06 83 1005.6
20260904235013 54 6 19.1 29.5 0.00 0.06 0.06 83 1005.6
20260904234531 54 351 17.4 27.8 0.00 0.06 0.06 83 1005.7
20260904234017 54 10 20.0 27.8 0.00 0.06 0.06 83 1005.8
20260904233515 54 346 16.5 27.8 0.00 0.06 0.06 83 1005.9
20260904233034 54 11 13.9 23.5 0.00 0.06 0.06 84 1005.8
20260904232516 54 314 14.8 28.7 0.00 0.06 0.06 84 1006.0
20260904232006 54 340 13.0 28.7 0.00 0.06 0.06 84 1005.8
20260904231509 54 26 9.6 20.9 0.00 0.06 0.06 84 1005.7
20260904231003 54 333 13.0 22.6 0.00 0.06 0.06 84 1005.9
20260904230507 54 343 13.0 22.6 0.00 0.06 0.06 84 1006.1
20260904230006 54 4 8.7 19.1 0.00 0.06 0.06 84 1006.0
20260904225502 54 7 12.2 22.6 0.00 0.06 0.06 84 1006.1
20260904225003 54 360 13.9 22.6 0.00 0.06 0.06 84 1006.3
20260904224505 54 28 8.7 25.2 0.00 0.05 0.05 84 1006.7
20260904224005 54 357 12.2 26.1 0.00 0.05 0.05 84 1006.8
20260904223503 54 346 13.0 26.1 0.00 0.05 0.05 84 1006.5
20260904223004 54 351 12.2 24.3 0.00 0.05 0.05 85 1006.7
20260904222504 53 338 12.2 24.3 0.00 0.05 0.05 85 1006.9
20260904222004 53 350 12.2 22.6 0.00 0.05 0.05 85 1006.5
20260904221519 53 28 12.2 20.9 0.00 0.05 0.05 85 1006.6
20260904221006 53 339 13.9 26.1 0.00 0.05 0.05 85 1006.8
20260904220504 53 5 7.0 26.1 0.00 0.05 0.05 85 1006.0
20260904220019 53 356 10.4 20.9 0.00 0.05 0.05 85 1007.1
20260904215510 53 4 11.3 23.5 0.00 0.05 0.05 85 1006.7
20260904215003 53 19 9.6 23.5 0.00 0.05 0.05 85 1006.7
20260904214505 53 1 11.3 26.1 0.00 0.05 0.05 85 1006.8
20260904214005 53 9 10.4 26.9 0.00 0.05 0.05 85 1006.8
20260904213504 53 1 13.0 26.9 0.00 0.05 0.05 85 1006.8
20260904213006 53 15 13.0 24.3 0.00 0.04 0.04 85 1006.7
20260904212504 52 347 11.3 17.4 0.00 0.04 0.04 85 1006.7
20260904212004 52 23 7.0 13.9 0.00 0.04 0.04 85 1006.6
20260904211508 52 12 5.2 21.7 0.00 0.04 0.04 85 1006.4
20260904211004 53 39 7.0 21.7 0.00 0.04 0.04 85 1006.7
20260904210504 53 11 9.6 20.0 0.00 0.04 0.04 85 1007.1
20260904210019 52 352 9.6 20.0 0.00 0.04 0.04 84 1007.5
20260904205506 53 55 7.8 23.5 0.00 0.04 0.04 84 1007.7
20260904205009 53 37 13.0 25.2 0.00 0.04 0.04 84 1008.0
20260904204512 53 4 14.8 27.8 0.00 0.04 0.04 83 1007.7
20260904204004 53 345 15.6 27.8 0.00 0.04 0.04 83 1007.6
20260904203504 53 8 13.0 25.2 0.00 0.04 0.04 83 1007.2
20260904203006 53 2 10.4 23.5 0.00 0.03 0.03 83 1007.3
20260904202503 53 24 7.8 23.5 0.00 0.03 0.03 84 1007.3
20260904202008 53 341 13.9 21.7 0.00 0.03 0.03 84 1007.1
20260904201508 52 328 7.0 17.4 0.00 0.03 0.03 84 1007.2
20260904201006 53 339 10.4 17.4 0.00 0.03 0.03 84 1007.5
20260904200507 52 1 10.4 17.4 0.00 0.03 0.03 84 1007.5
20260904200005 52 347 8.7 16.5 0.00 0.03 0.03 84 1007.8
20260904195508 52 8 9.6 21.7 0.00 0.03 0.03 84 1007.7
20260904195007 52 13 11.3 21.7 0.00 0.03 0.03 84 1007.7
20260904194514 52 2 5.2 21.7 0.00 0.03 0.03 84 1007.5
20260904194009 52 357 8.7 21.7 0.00 0.03 0.03 84 1007.3
20260904193505 53 6 10.4 18.2 0.00 0.03 0.03 84 1007.5
20260904193021 53 355 7.0 18.2 0.00 0.03 0.03 84 1007.6
20260904192506 53 12 9.6 18.2 0.00 0.03 0.03 84 1007.6
20260904192004 53 22 8.7 19.1 0.00 0.03 0.03 84 1007.8
20260904191505 53 15 9.6 19.1 0.00 0.03 0.03 84 1007.9
20260904191005 53 360 8.7 16.5 0.00 0.03 0.03 84 1007.9
20260904190507 53 344 8.7 17.4 0.00 0.03 0.03 83 1007.9
20260904190008 53 5 10.4 18.2 0.00 0.03 0.03 83 1008.3
20260904185507 53 8 8.7 19.1 0.00 0.03 0.03 82 1008.5
20260904185007 53 345 12.2 19.1 0.00 0.03 0.03 81 1008.6
20260904184514 53 353 9.6 19.1 0.00 0.03 0.03 82 1008.5
20260904184004 53 360 9.6 20.9 0.00 0.03 0.03 82 1007.9
20260904183509 53 358 10.4 20.9 0.00 0.03 0.03 82 1007.9
20260904183009 53 13 11.3 20.0 0.00 0.03 0.03 81 1007.9
20260904182516 53 333 12.2 22.6 0.00 0.03 0.03 81 1008.2
20260904182013 53 335 13.0 22.6 0.00 0.03 0.03 81 1008.3
20260904181510 54 356 11.3 21.7 0.01 0.03 0.03 80 1008.1
20260904181011 54 12 12.2 22.6 0.00 0.02 0.02 81 1007.9
20260904180512 54 12 13.0 24.3 0.00 0.02 0.02 81 1007.9
20260904180038 53 14 13.0 25.2 0.00 0.02 0.02 82 1007.9
20260904175506 53 29 15.6 25.2 0.00 0.02 0.02 83 1007.9
20260904175008 53 16 10.4 21.7 0.00 0.02 0.02 84 1007.7
20260904174527 53 12 10.4 20.9 0.00 0.02 0.02 84 1007.6
20260904174010 53 15 7.8 19.1 0.00 0.02 0.02 84 1007.8
20260904173510 53 11 10.4 20.0 0.00 0.02 0.02 84 1007.8
20260904173016 53 31 7.8 20.0 0.01 0.02 0.02 84 1007.8
20260904172510 53 11 9.6 20.0 0.01 0.02 0.02 84 1008.0
20260904172011 53 359 7.0 23.5 0.01 0.02 0.02 84 1008.3
20260904171523 53 8 10.4 23.5 0.00 0.01 0.01 84 1009.0
20260904171006 53 6 12.2 20.9 0.00 0.01 0.01 84 1009.2
20260904170512 53 14 8.7 23.5 0.00 0.01 0.01 84 1009.1
20260904170020 53 316 12.2 24.3 0.01 0.01 0.01 84 1009.5
20260904165506 53 341 10.4 25.2 0.01 0.01 0.01 85 1009.5
20260904165015 53 35 11.3 27.8 0.01 0.01 0.01 85 1009.8
20260904164519 53 345 11.3 27.8 0.01 0.01 0.01 85 1010.1
20260904164015 53 337 9.6 20.0 0.01 0.01 0.01 85 1009.8
20260904163516 52 13 9.6 25.2 0.01 0.01 0.01 85 1009.9
20260904163034 52 355 13.0 25.2 0.00 0.00 0.00 85 1010.2
20260904162508 53 72 9.6 27.8 0.00 0.00 0.00 85 1010.1
20260904162009 53 8 12.2 27.8 0.00 0.00 0.00 84 1010.6
20260904161517 53 3 11.3 24.3 0.00 0.00 0.00 84 1011.0
20260904161012 53 19 11.3 24.3 0.00 0.00 0.00 84 1011.0
20260904160510 53 8 7.8 21.7 0.00 0.00 0.00 83 1011.0
20260904160028 53 358 12.2 21.7 0.00 0.00 0.00 83 1011.3
20260904155512 53 29 11.3 21.7 0.00 0.00 0.00 82 1011.4
20260904155007 54 345 11.3 21.7 0.00 0.00 0.00 82 1011.6
20260904154532 54 326 7.8 23.5 0.00 0.00 0.00 81 1011.7
20260904154013 54 2 11.3 25.2 0.00 0.00 0.00 81 1011.7
20260904153517 54 326 12.2 25.2 0.00 0.00 0.00 81 1011.5
20260904153032 54 351 12.2 21.7 0.00 0.00 0.00 81 1011.5
20260904152511 54 2 13.9 21.7 0.00 0.00 0.00 80 1011.7
20260904152006 54 4 11.3 20.9 0.00 0.00 0.00 80 1011.7
20260904151514 54 341 11.3 28.7 0.00 0.00 0.00 80 1011.7
20260904151015 54 331 12.2 28.7 0.00 0.00 0.00 80 1011.9
20260904150512 54 56 13.0 26.9 0.00 0.00 0.00 80 1011.9
20260904150020 54 6 11.3 24.3 0.00 0.00 0.00 81 1011.9
20260904145513 54 49 10.4 20.0 0.00 0.00 0.00 81 1011.9
20260904145013 54 15 11.3 20.0 0.00 0.00 0.00 81 1012.1
20260904144516 54 8 8.7 20.0 0.00 0.00 0.00 82 1012.2
20260904144015 54 5 7.8 16.5 0.00 0.00 0.00 82 1012.2
20260904143513 53 333 7.0 20.9 0.00 0.00 0.00 82 1012.0
20260904143034 53 18 11.3 20.9 0.00 0.00 0.00 81 1012.1
20260904142519 53 4 12.2 20.9 0.00 0.00 0.00 82 1012.0
20260904142006 53 35 7.8 23.5 0.00 0.00 0.00 82 1011.9
20260904141511 53 2 10.4 23.5 0.00 0.00 0.00 82 1012.0
20260904141004 53 359 7.8 22.6 0.00 0.00 0.00 82 1012.0
20260904140510 53 20 9.6 22.6 0.00 0.00 0.00 82 1012.1
20260904140011 53 9 11.3 20.0 0.00 0.00 0.00 82 1012.3
20260904135503 53 24 8.7 25.2 0.00 0.00 0.00 81 1012.3
20260904135008 54 10 12.2 26.9 0.00 0.00 0.00 80 1012.4
20260904134508 54 15 13.0 26.9 0.00 0.00 0.00 79 1012.6
20260904134002 54 20 11.3 32.2 0.00 0.00 0.00 79 1012.7
20260904133504 55 10 15.6 33.0 0.00 0.00 0.00 79 1012.8
20260904133007 55 4 16.5 33.0 0.00 0.00 0.00 79 1012.8
20260904132510 55 10 15.6 26.1 0.00 0.00 0.00 79 1013.0
20260904132009 55 14 11.3 26.1 0.00 0.00 0.00 78 1013.0
20260904131504 55 58 13.0 31.3 0.00 0.00 0.00 77 1013.2
20260904131004 55 339 14.8 31.3 0.00 0.00 0.00 77 1013.3
20260904130505 56 345 19.1 27.8 0.00 0.00 0.00 77 1013.4
20260904130018 55 9 16.5 27.8 0.00 0.00 0.00 77 1013.2
20260904125509 55 33 13.9 28.7 0.00 0.00 0.00 76 1013.3
20260904125005 55 344 17.4 30.4 0.00 0.00 0.00 76 1013.1
20260904124518 55 1 12.2 30.4 0.00 0.00 0.00 76 1013.3
20260904124004 56 349 15.6 27.8 0.00 0.00 0.00 75 1013.3
20260904123514 56 351 13.9 31.3 0.00 0.00 0.00 75 1013.3
20260904123012 56 341 15.6 33.0 0.00 0.00 0.00 75 1013.3
20260904122504 56 329 15.6 35.6 0.00 0.00 0.00 75 1013.2
20260904122005 56 8 14.8 35.6 0.00 0.00 0.00 75 1013.0
20260904121506 56 128 13.0 26.9 0.00 0.00 0.00 75 1013.1
20260904121004 56 18 14.8 26.9 0.00 0.00 0.00 75 1013.2
20260904120515 56 4 17.4 27.8 0.00 0.00 0.00 74 1013.6
20260904120011 56 24 15.6 27.8 0.00 0.00 0.00 74 1013.1
20260904115508 56 354 12.2 20.9 0.00 0.00 0.00 74 1013.4
20260904115010 56 21 11.3 20.9 0.00 0.00 0.00 74 1013.2
20260904114509 56 349 12.2 23.5 0.00 0.00 0.00 74 1013.2
20260904114011 56 330 12.2 25.2 0.00 0.00 0.00 74 1013.0
20260904113508 56 17 13.9 25.2 0.00 0.00 0.00 74 1013.3
20260904113007 56 8 13.0 25.2 0.00 0.00 0.00 74 1013.5
20260904112513 56 20 12.2 23.5 0.00 0.00 0.00 74 1013.4
20260904112009 55 37 13.0 23.5 0.00 0.00 0.00 73 1013.6
20260904111530 55 10 13.9 25.2 0.00 0.00 0.00 74 1013.6
20260904111011 55 11 13.9 25.2 0.00 0.00 0.00 73 1013.8
20260904110506 55 27 15.6 22.6 0.00 0.00 0.00 74 1013.9
20260904110024 55 29 7.8 16.5 0.00 0.00 0.00 73 1014.0
20260904105506 54 3 10.4 20.0 0.00 0.00 0.00 73 1014.1
20260904105008 54 23 9.6 19.1 0.00 0.00 0.00 73 1014.2
20260904104510 54 14 7.8 16.5 0.00 0.00 0.00 73 1014.1
20260904104008 54 347 6.1 17.4 0.00 0.00 0.00 73 1014.2
20260904103513 54 346 7.0 17.4 0.00 0.00 0.00 73 1014.4
20260904103021 54 337 7.8 15.6 0.00 0.00 0.00 73 1014.5
20260904102507 54 339 9.6 17.4 0.00 0.00 0.00 72 1014.5
20260904102013 54 12 11.3 17.4 0.00 0.00 0.00 72 1014.5
20260904101514 54 346 10.4 17.4 0.00 0.00 0.00 72 1014.6
20260904101018 54 360 8.7 16.5 0.00 0.00 0.00 73 1014.8
20260904100517 54 335 9.6 16.5 0.00 0.00 0.00 73 1015.0
20260904100012 54 348 8.7 15.6 0.00 0.00 0.00 73 1014.9
20260904095518 54 8 7.8 17.4 0.00 0.00 0.00 72 1015.0
20260904095012 54 30 7.8 17.4 0.00 0.00 0.00 72 1015.0
20260904094513 54 335 9.6 24.3 0.00 0.00 0.00 72 1015.0
20260904094013 54 360 12.2 23.5 0.00 0.00 0.00 72 1014.9
20260904093510 54 3 12.2 23.5 0.00 0.00 0.00 72 1015.0
20260904093018 54 339 13.0 23.5 0.00 0.00 0.00 72 1014.9
20260904092519 54 349 12.2 19.1 0.00 0.00 0.00 72 1014.8
20260904092010 54 14 8.7 20.0 0.00 0.00 0.00 73 1014.7
20260904091523 53 10 12.2 22.6 0.00 0.00 0.00 72 1014.7
20260904091011 53 342 11.3 22.6 0.00 0.00 0.00 73 1014.6
20260904090514 53 350 11.3 20.9 0.00 0.00 0.00 73 1014.6
20260904090042 53 26 10.4 26.9 0.00 0.00 0.00 73 1014.5
20260904085507 53 21 10.4 26.9 0.00 0.00 0.00 72 1014.4
20260904085022 53 14 13.9 26.9 0.00 0.00 0.00 73 1014.3
20260904084524 52 350 10.4 20.9 0.00 0.00 0.00 73 1014.5
20260904084007 52 7 10.4 18.2 0.00 0.00 0.00 73 1014.4
20260904083517 52 29 6.1 17.4 0.00 0.00 0.00 73 1014.3
20260904083011 52 10 7.8 14.8 0.00 0.00 0.00 74 1014.4
20260904082519 52 33 6.1 20.0 0.00 0.00 0.00 73 1014.6
20260904082011 52 10 7.8 20.0 0.00 0.00 0.00 73 1014.6
20260904081529 52 6 8.7 22.6 0.00 0.00 0.00 72 1014.7
20260904081013 52 8 10.4 25.2 0.00 0.00 0.00 72 1014.9
20260904080516 52 22 12.2 25.2 0.00 0.00 0.00 72 1014.9
20260904080012 52 355 12.2 19.1 0.00 0.00 0.00 72 1015.0
20260904075516 52 10 8.7 18.2 0.00 0.00 0.00 72 1015.0
20260904075013 52 351 8.7 20.0 0.00 0.00 0.00 71 1015.0
20260904074532 52 22 9.6 27.8 0.00 0.00 0.00 71 1015.2
20260904074015 52 8 11.3 27.8 0.00 0.00 0.00 71 1015.3
20260904073514 52 12 10.4 23.5 0.00 0.00 0.00 71 1015.3
20260904073031 52 28 13.0 26.1 0.00 0.00 0.00 71 1015.1
20260904072512 52 31 14.8 29.5 0.00 0.00 0.00 71 1015.2
20260904072027 52 322 14.8 29.5 0.00 0.00 0.00 71 1015.2
20260904071530 52 15 11.3 24.3 0.00 0.00 0.00 71 1015.1
20260904071012 52 21 11.3 20.0 0.00 0.00 0.00 71 1015.2
20260904070517 52 345 7.8 20.0 0.00 0.00 0.00 71 1015.3
20260904070032 52 8 7.0 24.3 0.00 0.00 0.00 71 1015.3
20260904065509 53 345 11.3 24.3 0.00 0.00 0.00 70 1015.3
20260904065019 53 62 11.3 20.0 0.00 0.00 0.00 70 1015.6
20260904064525 53 345 10.4 18.2 0.00 0.00 0.00 70 1015.7
20260904064021 53 52 8.7 19.1 0.00 0.00 0.00 70 1015.8
20260904063520 53 12 7.8 19.1 0.00 0.00 0.00 70 1016.0
20260904063032 53 359 8.7 22.6 0.00 0.00 0.00 69 1015.9
20260904062518 53 336 6.1 22.6 0.00 0.00 0.00 70 1016.0
20260904062015 53 18 4.3 16.5 0.00 0.00 0.00 70 1016.3
20260904061525 53 16 7.8 16.5 0.00 0.00 0.00 69 1016.5
20260904061018 54 8 7.0 16.5 0.00 0.00 0.00 68 1016.5
20260904060516 54 38 6.1 16.5 0.00 0.00 0.00 69 1016.5
20260904060035 54 353 7.8 15.6 0.00 0.00 0.00 69 1016.7
20260904055517 54 13 7.8 13.0 0.00 0.00 0.00 69 1016.9
20260904055015 53 346 6.1 20.9 0.00 0.00 0.00 69 1017.0
20260904054544 53 9 7.0 20.9 0.00 0.00 0.00 68 1017.0
20260904054015 54 333 7.8 15.6 0.00 0.00 0.00 67 1017.1
20260904053515 54 5 9.6 16.5 0.00 0.00 0.00 67 1017.1
20260904053043 54 358 7.8 16.5 0.00 0.00 0.00 67 1017.1
20260904052514 54 354 10.4 17.4 0.00 0.00 0.00 66 1017.2
20260904052007 54 5 10.4 20.0 0.00 0.00 0.00 67 1017.2
20260904051510 53 339 12.2 20.0 0.00 0.00 0.00 67 1017.3
20260904051003 53 341 10.4 20.0 0.00 0.00 0.00 67 1017.3
20260904050508 54 351 10.4 20.0 0.00 0.00 0.00 67 1017.5
20260904050004 54 8 13.0 20.0 0.00 0.00 0.00 66 1017.4
20260904045501 54 334 8.7 17.4 0.00 0.00 0.00 66 1017.4
20260904045007 54 343 11.3 20.0 0.00 0.00 0.00 67 1017.3
20260904044503 54 31 7.8 20.0 0.00 0.00 0.00 67 1017.4
20260904044005 54 2 9.6 24.3 0.00 0.00 0.00 66 1017.3
20260904043504 55 8 9.6 24.3 0.00 0.00 0.00 66 1017.1
20260904043003 55 10 11.3 18.2 0.00 0.00 0.00 66 1017.1